Location: Karwodrza
(49.9217°N, 21.0454°E)
Time: 07:15:19
(UTC+01:00)

ISS - Pass Details

Date: 24 January 2019
Orbit: 403 x 411 km, 51.6° (Epoch: 21 February)

Event Time Altitude Azimuth Distance (km) Brightness Sun altitude
Rises 17:42:11 0° 209° (SSW) 2,323 0.7 -13.6°
Reaches altitude 10° 17:44:34 10° 192° (SSW) 1,469 -0.7 -14.0°
Maximum altitude 17:47:06 21° 142° (SE) 995 -2.1 -14.4°
Enters shadow 17:47:44 20° 125° (SE) 1,032 -2.2 -14.5°
